Weather observations for the past three days for
Melbourne International Airport
Metric (Imperial)
Date Time (edt) Wind (kph) Vis. (km) Weather Sky Cond. Temperature (ºC) Relative Humidity Wind Chill (°C) Heat Index (°C) Pressure Precipitation (cm)
Air Dwpt 6 hour altimeter (cm) sea level (mb) 1 hr 3 hr 6 hr
Max. Min.
02 14:53 W 26 G 41 16.09 A Few Clouds FEW100 32.2 19.4 47% 34 75.77 1010.1
02 13:53 W 22 16.09 Overcast SCT055 BKN075 OVC100 30.6 20.6 31.7 21.7 55% 33 75.77 1010.2
02 12:53 W 19 16.09 Mostly Cloudy SCT047 SCT055 BKN090 30.6 20.6 55% 33 75.79 1010.5
02 11:53 SW 17 G 35 16.09 Partly Cloudy FEW039 SCT070 SCT090 30 20.6 57% 32 75.84 1011.0
02 10:53 SW 19 16.09 A Few Clouds FEW024 28.3 21.1 65% 31 75.87 1011.5
02 09:53 SW 19 16.09 Mostly Cloudy BKN021 27.2 19.4 62% 29 75.84 1011.1
02 08:53 SW 17 16.09 Fair CLR 24.4 19.4 74% 25 75.82 1010.7
02 07:53 SW 13 16.09 Fair CLR 21.7 20 23.3 20 90% 75.82 1010.9
02 06:53 S 11 16.09 A Few Clouds FEW060 20.6 19.4 93% 75.79 1010.4
02 05:53 Calm 16.09 Fair CLR 20.6 18.9 90% 75.79 1010.3
02 04:53 SW 13 16.09 Fair CLR 21.7 18.9 84% 75.82 1010.6
02 03:53 SW 11 16.09 Fair CLR 22.2 18.3 79% 75.79 1010.4
02 02:53 SW 13 16.09 Fair CLR 23.3 17.8 71% 75.79 1010.3
02 01:53 SW 15 16.09 Fair CLR 23.3 17.8 26.7 23.3 71% 75.82 1010.7
02 00:53 SW 17 16.09 Fair CLR 24.4 17.8 67% 25 75.82 1010.7
01 23:53 SW 13 16.09 Fair CLR 25 19.4 71% 26 75.82 1010.7
01 22:53 S 17 16.09 Fair CLR 25.6 20.6 74% 27 75.82 1010.8
01 21:53 S 15 16.09 A Few Clouds FEW075 26.1 22.2 79% 28 75.82 1010.6
01 20:53 SE 9 16.09 Fair CLR 26.7 22.2 76% 29 75.77 1010.1
01 19:53 SE 17 16.09 Fair CLR 26.7 22.2 30.6 26.7 76% 29 75.72 1009.3
01 18:53 SE 20 16.09 Fair CLR 27.8 21.1 67% 30 75.67 1008.8
01 17:53 SE 19 16.09 Fair CLR 27.8 20.6 65% 30 75.67 1008.8
01 16:53 SE 22 16.09 Fair CLR 28.9 20.6 61% 31 75.69 1009.1
01 14:53 SE 19 16.09 Partly Cloudy FEW050 SCT070 30 20 55% 32 75.82 1010.6
01 13:53 E 19 16.09 Mostly Cloudy BKN046 BKN070 28.9 20.6 30.6 22.8 61% 31 75.87 1011.3
01 12:53 W 15 16.09 Mostly Cloudy SCT043 BKN055 30 18.9 51% 31 75.9 1011.7
01 11:53 Vrbl 7 16.09 Partly Cloudy SCT035 28.9 19.4 57% 30 75.92 1012.0
01 10:53 W 11 16.09 A Few Clouds FEW025 28.3 20.6 63% 30 75.95 1012.4
01 09:53 W 13 16.09 Fair CLR 26.7 21.1 71% 28 75.95 1012.5
01 08:53 W 13 16.09 Fair CLR 24.4 21.1 82% 25 75.95 1012.5
01 07:53 W 11 16.09 Fair CLR 22.8 20.6 23.3 21.1 87% 75.9 1011.8
01 06:53 W 19 16.09 Fair CLR 21.7 20.6 94% 75.87 1011.4
01 05:53 W 13 16.09 Fair CLR 21.7 19.4 87% 75.84 1011.2
01 04:53 W 11 16.09 Fair CLR 22.2 20 87% 75.84 1011.0
01 03:53 W 15 16.09 Fair CLR 22.8 19.4 81% 75.82 1010.8
01 02:53 W 22 16.09 Fair CLR 23.3 20 82% 75.82 1010.7
01 01:53 W 15 16.09 Fair CLR 22.8 18.9 28.3 22.8 79% 75.82 1010.9
01 00:53 W 19 16.09 Fair CLR 23.3 17.8 71% 75.87 1011.4
30 23:53 W 15 16.09 Fair CLR 24.4 17.8 67% 25 75.87 1011.5
30 22:53 W 11 16.09 Fair CLR 25.6 17.8 62% 27 75.87 1011.2
30 21:53 W 13 16.09 Fair CLR 26.7 17.2 56% 27 75.84 1011.1
30 20:53 W 7 16.09 Fair CLR 27.2 16.7 53% 28 75.79 1010.4
30 19:53 Calm 16.09 Fair CLR 28.3 16.7 32.2 28.3 49% 29 75.74 1009.6
30 18:53 W 15 16.09 Fair CLR 30.6 16.1 42% 31 75.69 1008.9
30 17:53 SW 15 16.09 Fair CLR 31.7 16.1 39% 32 75.69 1008.9
30 16:53 W 19 16.09 A Few Clouds FEW065 31.1 15.6 39% 31 75.69 1009.0
30 15:53 W 22 G 31 16.09 A Few Clouds FEW060 31.7 17.2 42% 32 75.74 1009.6
30 14:53 SW 20 G 31 16.09 Fair CLR 31.1 17.2 43% 32 75.79 1010.4
30 13:53 W 19 G 33 16.09 Fair CLR 29.4 17.2 30 21.7 48% 30 75.84 1011.0
30 12:53 SW 22 G 28 16.09 Fair CLR 29.4 18.3 51% 30 75.9 1011.6
30 11:53 W 17 16.09 Fair CLR 26.7 19.4 64% 28 75.95 1012.3
30 10:53 W 19 16.09 Fair CLR 25.6 19.4 69% 27 75.95 1012.4
30 09:53 W 20 16.09 Fair CLR 25.6 19.4 69% 27 75.95 1012.4
30 08:53 SW 17 16.09 Fair CLR 23.9 20.6 82% 24 75.95 1012.6
30 07:53 SW 13 16.09 Fair CLR 21.7 20 22.8 20 90% 75.95 1012.3
30 06:53 S 9 16.09 Fair CLR 20.6 18.9 90% 75.9 1011.6
30 05:53 SW 9 16.09 Fair CLR 20.6 18.9 90% 75.87 1011.4
30 04:53 SW 9 16.09 Fair CLR 20.6 18.3 87% 75.84 1011.2
30 03:53 W 6 16.09 Fair CLR 21.1 18.9 87% 75.9 1011.6
30 02:53 W 11 16.09 Fair CLR 22.2 18.9 82% 75.9 1011.8
30 01:53 SW 9 16.09 Fair CLR 22.8 19.4 25.6 22.8 81% 75.95 1012.6
30 00:53 SW 15 16.09 Fair CLR 23.9 19.4 76% 24 76 1013.2
29 23:53 S 19 16.09 Fair CLR 23.9 19.4 76% 24 76 1013.0
29 22:53 S 15 16.09 Fair CLR 24.4 19.4 74% 25 76 1013.2
29 21:53 SE 11 16.09 Fair CLR 25 18.9 69% 26 76 1013.2
29 20:53 SE 13 16.09 Fair CLR 25 18.9 69% 26 75.95 1012.3
29 19:53 SE 19 16.09 Fair CLR 25.6 17.8 28.9 25.6 62% 27 75.9 1011.6
29 18:53 SE 20 16.09 Fair CLR 26.7 17.8 58% 28 75.9 1011.6
29 17:53 SE 19 16.09 Fair CLR 27.8 17.2 53% 28 75.9 1011.8
29 16:53 E 20 16.09 Fair CLR 27.8 17.8 55% 29 75.95 1012.4
29 15:53 E 15 16.09 Fair CLR 28.3 17.8 53% 29 76.02 1013.6
Date Time (edt) Wind (kph) Vis. (km) Weather Sky Cond. Air Dwpt Max. Min. Relative Humidity Wind Chill (°C) Heat Index (°C) altimeter (cm) sea level (mb) 1 hr 3 hr 6 hr
6 hour
Temperature (ºC) Pressure Precipitation (cm)